Regional Weather Roundup
Issued by NWS

Home | Current Version | Previous Version | Text Only | Print | Product List | Glossary Off
Versions: 1 2 3 4 5 6 7 8 9 10 11 12 13 14 15 16 17 18 19 20 21 22 23 24 25 26 27 28 29 30 31 32 33 34 35 36 37 38 39 40 41 42 43 44 45 46 47 48 49 50

000
ASUS45 KPSR 221210
RWRAZ

ARIZONA REGIONAL HOURLY WEATHER ROUNDUP
NATIONAL WEATHER SERVICE PHOENIX AZ
500 AM MST WED OCT 22 2014

NOTE: FAIR INDICATES FEW OR NO CLOUDS BELOW 12,000 FEET WITH NO
SIGNIFICANT WEATHER AND/OR OBSTRUCTIONS TO VISIBILITY.

AZZ001>003-036-221300-
NORTHWEST ARIZONA

CITY           SKY/WX    TMP DP  RH WIND       PRES   REMARKS
BULLHEAD CITY  CLEAR     66  37  34 CALM      29.88R
KINGMAN        CLEAR     54  40  59 SW3       30.00R
6HR MIN TEMP:  52; 6HR MAX TEMP:  61;

$$

AZZ004>008-015-016-018-221300-
NORTH CENTRAL ARIZONA

CITY           SKY/WX    TMP DP  RH WIND       PRES   REMARKS
GRAND CANYON   PTCLDY    31  26  82 CALM      30.18R
6HR MIN TEMP:  30; 6HR MAX TEMP:  39;

PRESCOTT       CLEAR     46  40  79 CALM      30.10R
6HR MIN TEMP:  46; 6HR MAX TEMP:  55;

FLAGSTAFF      CLEAR     36  33  89 CALM      30.19S
6HR MIN TEMP:  36; 6HR MAX TEMP:  43;

PAYSON         CLEAR     50  45  81 CALM      30.13R
PAGE           CLEAR     57  39  51 W3        30.05R
6HR MIN TEMP:  57; 6HR MAX TEMP:  68;

$$

AZZ009>014-017-221300-
NORTHEAST ARIZONA

CITY           SKY/WX    TMP DP  RH WIND       PRES   REMARKS
WINSLOW        CLEAR     45  42  89 S7        30.12R
6HR MIN TEMP:  44; 6HR MAX TEMP:  57;

SAINT JOHNS    MOCLDY    45  43  93 CALM      30.14R
6HR MIN TEMP:  44; 6HR MAX TEMP:  57;

WINDOW ROCK    CLEAR     33  30  88 CALM      30.19R
6HR MIN TEMP:  33; 6HR MAX TEMP:  44;

SHOW LOW       CLEAR     41  39  93 S6        30.19R
$$

AZZ023-221300-
GREATER PHOENIX AREA

CITY           SKY/WX    TMP DP  RH WIND       PRES   REMARKS
PHOENIX        CLEAR     69  53  56 E3        29.88R
6HR MIN TEMP:  69; 6HR MAX TEMP:  76;

BUCKEYE          N/A     59  46  63 N5        29.89R
LUKE AFB       CLEAR     64  51  63 CALM      29.88R
6HR MIN TEMP:  63; 6HR MAX TEMP:  69;

DEER VALLEY    CLEAR     66  49  54 NE6       29.90R
6HR MIN TEMP:  66; 6HR MAX TEMP:  72;

SCOTTSDALE     CLEAR     66  52  60 CALM      29.91R
6HR MIN TEMP:  66; 6HR MAX TEMP:  75;

MESA-GATEWAY   CLEAR     63  54  72 SE3       29.92R
$$

AZZ027-028-221300-
SOUTHWEST MARICOPA COUNTY AND PINAL COUNTY

CITY           SKY/WX    TMP DP  RH WIND       PRES   REMARKS
CASA GRANDE    CLEAR     61  48  63 CALM      29.90R
6HR MIN TEMP:  61; 6HR MAX TEMP:  70;

$$

AZZ503-504-507>509-221300-
SOUTHEAST ARIZONA

CITY           SKY/WX    TMP DP  RH WIND       PRES   REMARKS
TUCSON         CLEAR     62  49  62 SE7       29.97R
6HR MIN TEMP:  62; 6HR MAX TEMP:  69;

DAVIS-MONTHAN  CLEAR     61  49  64 S5        29.95R
6HR MIN TEMP:  60; 6HR MAX TEMP:  65;

NOGALES        CLEAR     49  45  86 MISG      30.02R
6HR MIN TEMP:  49; 6HR MAX TEMP:  58;

SIERRA VISTA   CLEAR     55  45  67 CALM      30.07R
DOUGLAS        CLEAR     48  45  89 CALM      30.05R
6HR MIN TEMP:  48; 6HR MAX TEMP:  56;

SAFFORD        CLEAR     60  52  74 E8        30.00R
6HR MIN TEMP:  59; 6HR MAX TEMP:  63;

$$

AZZ020-021-025-026-031-221300-
SOUTHWEST ARIZONA

CITY           SKY/WX    TMP DP  RH WIND       PRES   REMARKS
YUMA           PTCLDY    73  60  63 NE5       29.81S
6HR MIN TEMP:  72; 6HR MAX TEMP:  79;

$$

CAZ031-033-041-043-047-048-061-221300-
SOUTHERN CALIFORNIA

CITY           SKY/WX    TMP DP  RH WIND       PRES   REMARKS
DOWNTOWN L.A.  CLEAR     62  58  86 CALM      29.88S
6HR MIN TEMP:  62; 6HR MAX TEMP:  67;

L.A. AIRPORT   PTCLDY    62  60  93 CALM      29.88S
6HR MIN TEMP:  61; 6HR MAX TEMP:  67;

SAN DIEGO      PTCLDY    65  59  81 N3        29.90R
6HR MIN TEMP:  64; 6HR MAX TEMP:  68;

BURBANK        CLEAR     59  48  67 CALM      29.88F
6HR MIN TEMP:  58; 6HR MAX TEMP:  64;

ONTARIO        PTCLDY    58  51  78 CALM      29.89S
6HR MIN TEMP:  57; 6HR MAX TEMP:  66;

RIVERSIDE      CLEAR     59  54  83 SE3       29.90S
6HR MIN TEMP:  58; 6HR MAX TEMP:  65;

PALM SPRINGS   CLEAR     66  47  50 CALM      29.85R
6HR MIN TEMP:  66; 6HR MAX TEMP:  80;

EL CENTRO NAS  CLEAR     65  42  43 S5        29.79S
6HR MIN TEMP:  65; 6HR MAX TEMP:  77;

IMPERIAL       CLEAR     68  44  42 CALM      29.79S
6HR MIN TEMP:  67; 6HR MAX TEMP:  76;

BLYTHE         CLEAR     67  43  41 N6        29.83R
6HR MIN TEMP:  66; 6HR MAX TEMP:  77;

NEEDLES        CLEAR     67  41  38 SW5       29.87R
6HR MIN TEMP:  67; 6HR MAX TEMP:  77;

$$

NVZ020-UTZ003-221300-
SOUTHERN NEVADA-UTAH

CITY           SKY/WX    TMP DP  RH WIND       PRES   REMARKS
LAS VEGAS      PTCLDY    63  26  24 SW7       29.91R
6HR MIN TEMP:  63; 6HR MAX TEMP:  70;

SALT LAKE CITY CLEAR     41  34  76 SE6       30.15R
6HR MIN TEMP:  40; 6HR MAX TEMP:  46;

$$

NMZ009-TXZ055-221300-
NEW MEXICO-WEST TEXAS

CITY           SKY/WX    TMP DP  RH WIND       PRES   REMARKS
ALBUQUERQUE    PTCLDY    54  47  77 SE6       30.14R
6HR MIN TEMP:  53; 6HR MAX TEMP:  58;

EL PASO        MOCLDY    60  55  83 N7        30.08R
6HR MIN TEMP:  60; 6HR MAX TEMP:  62;

$$


........................KEY........................
SKY/WX - SKY CONDITION/WEATHER
TMP    - TEMPERATURE IN FAHRENHEIT
DP     - DEW POINT IN FAHRENHEIT
RH     - RELATIVE HUMIDITY IN PERCENT
WIND   - DIRECTION AND SPEED IN MILES PER HOUR (MPH)
VRB    - VARIABLE WIND DIRECTION
PRES   - MEAN SEA LEVEL PRESSURE IN INCHES OF MERCURY
         F - FALLING PRESSURE   R - RISING PRESSURE
         S - STEADY PRESSURE
VSB    - VISIBILITY IN MILES
HX     - HEAT INDEX IN FAHRENHEIT
WCI    - WIND CHILL INDEX IN FAHRENHEIT
TC     - TEMPERATURE IN CELSIUS WHICH IS ALSO KNOWN AS
         TEMPERATURE IN CENTIGRADE
AFB    - AIR FORCE BASE
         LUKE AFB IS LUKE AIR FORCE BASE
         DAVIS-MONTHAN IS DAVIS-MONTHAN AIR FORCE BASE
NAS    - NAVAL AIR STATION
         EL CENTRO NAS IS EL CENTRO NAVAL AIR STATION
N/A    - NOT AVAILABLE



USA.gov is the U.S. government's official web portal to all federal, state and local government web resources and services.